This is the latest recevied weather packets stored in our database for station/object DL5DI-H. If no packets are shown the sender has not sent any weather packets the latest 1 day(s).
| Time | Temp. | Humidity | Pressure | Rain* | Wind** | Luminosity | Snow |
|---|---|---|---|---|---|---|---|
| 1777978204 | 19.44° C | 71% | 1008.9 hPa | 0 mm | 0.45 m/s, 26° | - | - |
| 1777977601 | 20° C | 70% | 1008.8 hPa | 0 mm | 0.89 m/s, 72° | - | - |
| 1777977000 | 20° C | 69% | 1008.9 hPa | 0 mm | 0.89 m/s, 113° | - | - |
| 1777976400 | 20° C | 68% | 1008.9 hPa | 0 mm | 0.45 m/s, 123° | - | - |
| 1777975805 | 20° C | 71% | 1008.9 hPa | 0 mm | 0.45 m/s, 70° | - | - |
| 1777975200 | 19.44° C | 73% | 1009 hPa | 0 mm | 0.89 m/s, 90° | - | - |
| 1777974601 | 19.44° C | 76% | 1009.1 hPa | 0 mm | 0.89 m/s, 71° | - | - |
| 1777974004 | 18.89° C | 75% | 1009.1 hPa | 0 mm | 0.89 m/s, 90° | - | - |
| 1777973405 | 18.89° C | 77% | 1009.2 hPa | 0 mm | 0.45 m/s, 90° | - | - |
| 1777972804 | 18.89° C | 79% | 1009.3 hPa | 0 mm | 0.89 m/s, 67° | - | - |
| 1777972204 | 18.33° C | 79% | 1009.3 hPa | 0 mm | 0.45 m/s, 71° | - | - |
| 1777971604 | 17.78° C | 79% | 1009.4 hPa | 0 mm | 0.45 m/s, 90° | - | - |
| 1777971000 | 17.78° C | 81% | 1009.5 hPa | 0 mm | 0.89 m/s, 73° | - | - |
| 1777970400 | 17.78° C | 82% | 1009.5 hPa | 0 mm | 0.89 m/s, 90° | - | - |
| 1777969800 | 17.78° C | 84% | 1009.6 hPa | 0 mm | 1.34 m/s, 68° | - | - |
| 1777969204 | 17.22° C | 84% | 1009.6 hPa | 0 mm | 0.89 m/s, 76° | - | - |
| 1777968605 | 16.67° C | 86% | 1009.8 hPa | 0 mm | 0.89 m/s, 65° | - | - |
| 1777967400 | 16.11° C | 88% | 1009.9 hPa | 0 mm | 0.45 m/s, 45° | - | - |
| 1777966801 | 16.11° C | 89% | 1010 hPa | 0 mm | 0.45 m/s, 90° | - | - |
| 1777965604 | 15.56° C | 91% | 1010.2 hPa | 0 mm | 0.45 m/s, 90° | - | - |
| 1777965004 | 15° C | 92% | 1010.1 hPa | 0 mm | 0.45 m/s, 72° | - | - |
| 1777964404 | 15° C | 92% | 1010.2 hPa | 0 mm | 0.45 m/s, 90° | - | - |
| 1777963801 | 14.44° C | 92% | 1010.2 hPa | 0 mm | 0.45 m/s, 90° | - | - |
| 1777963201 | 14.44° C | 92% | 1010.2 hPa | 0 mm | 0.45 m/s, 90° | - | - |
| 1777962604 | 14.44° C | 93% | 1010.2 hPa | 0 mm | 0.45 m/s, 75° | - | - |
* Rain latest hour (hover to see other rain measurements)
** Current wind speed in m/s (hover to see current wind gust speed)